Temperature
16 17 17 16 16 16 16 16 16 16 16 16 16 16 16 16 16 16 16 16 16 16 16 16 16 15 15 15 15 15 15 15 15 15 15 15 15 15 15 15 15 15 15
17 17 16 16 16 16 16 16 16 16 16 16 16 16 16 16 16 16 16 16 16 16 16 16 15 15 15 15 15 15 15 15 15 15 15 15 15 15 15 15 15 14 15
16 16 16 16 16 16 16 16 16 16 16 16 16 16 16 15 16 15 15 15 15 15 15 15 15 15 15 15 15 15 15 15 14 14 14 14 14 14 14 14 14 14 14
16 16 16 16 16 16 16 16 16 16 16 16 16 15 15 15 15 15 15 15 15 15 15 15 15 15 15 15 15 15 15 14 14 14 14 14 14 14 14 14 14 14 14
15 15 16 16 16 15 15 15 15 15 15 15 15 15 15 15 15 15 15 15 15 15 15 15 15 15 15 15 15 14 14 14 14 13 14 14 14 14 14 14 14 14 14
15 15 15 15 15 15 15 15 15 15 15 15 15 15 15 15 15 15 15 15 15 15 15 15 15 14 14 14 14 14 14 13 13 13 13 14 14 14 13 14 14 13 13
15 15 15 15 15 15 15 15 15 15 15 15 15 15 15 15 15 15 15 15 15 15 15 15 14 14 14 14 14 14 14 13 13 13 13 13 13 13 13 13 13 13 13
15 15 15 15 15 15 15 15 15 15 15 15 15 15 15 15 15 14 14 14 14 14 14 14 14 14 14 14 14 14 13 13 13 13 13 13 13 13 13 13 13 13 13
14 14 14 14 14 14 14 14 14 14 14 14 14 14 14 14 14 14 14 14 14 14 14 14 14 14 14 14 14 13 13 13 13 13 13 13 13 13 13 13 13 13 13
14 14 14 14 14 14 14 14 14 14 14 14 14 14 14 14 14 14 14 14 14 14 14 14 14 14 13 13 13 13 13 13 13 12 13 13 13 13 12 12 12 12 12
14 14 14 14 14 14 14 14 14 14 14 14 14 13 14 14 14 13 13 13 13 13 13 13 13 13 13 13 13 13 13 12 12 12 12 12 12 12 12 12 12 12 12
14 13 13 13 13 13 13 13 13 13 13 13 13 13 13 13 13 13 13 13 13 13 13 13 13 13 13 12 12 12 12 12 12 12 12 12 12 12 12 12 12 12 12
13 13 13 13 13 13 13 13 13 13 13 13 13 13 13 13 13 13 13 12 12 12 12 12 12 12 12 12 12 12 12 12 12 12 12 12 12 12 11 11 11 11 11
13 13 13 13 13 13 13 13 13 13 13 13 12 12 12 12 12 12 12 12 12 12 12 12 12 12 12 12 12 12 12 11 11 11 11 11 11 11 11 11 11 11 11
12 13 13 13 13 13 12 12 12 12 12 12 12 12 12 12 12 12 12 12 12 12 12 12 12 11 11 11 11 11 11 11 11 11 11 11 11 11 11 11 11 11 11
12 12 12 12 12 12 12 12 12 12 12 12 12 12 12 12 12 12 12 12 12 11 11 11 11 11 11 11 11 11 11 11 11 11 11 11 11 11 11 10 10 10 10
12 12 12 12 12 12 12 12 12 12 12 12 12 12 12 12 12 12 11 11 11 11 11 11 11 11 11 11 11 11 11 11 11 10 10 10 10 10 10 10 10 10 10
11 11 11 11 12 12 12 12 12 12 11 11 11 11 11 11 11 11 11 11 11 11 11 11 11 11 11 11 11 11 11 11 10 10 10 10 10 10 10 10 10 10 10
10 10 11 11 11 11 11 11 11 11 11 11 11 11 11 11 11 11 11 11 11 11 11 11 11 11 11 11 10 10 10 10 10 10 10 10 10 10 10 10 10 10 10
10 10 10 10 10 11 11 11 11 11 11 11 11 11 10 10 11 11 11 11 11 10 10 10 10 10 10 10 10 10 10 10 10 10 10 10 10 10 10 10 9 9 9
9 10 10 10 10 10 10 10 10 10 10 10 10 10 10 10 10 10 10 10 10 10 10 10 10 10 10 10 10 9 9 9 10 10 9 9 9 9 9 9 9 9 9
9 9 9 9 9 9 10 10 10 10 10 10 10 10 10 10 10 10 10 10 10 10 10 10 10 9 10 9 9 9 8 9 9 9 9 9 9 9 9 9 9 9 9
8 8 8 9 9 9 9 9 9 9 10 9 9 9 9 9 9 9 9 10 10 10 9 9 9 9 9 9 9 8 8 8 8 9 9 9 9 9 9 9 9 9 8
8 8 8 8 8 8 8 8 9 9 9 9 9 9 9 9 9 9 9 9 9 9 9 9 9 8 8 8 8 8 8 8 8 8 8 8 8 8 8 8 8 8 8
7 8 8 8 8 8 8 8 8 8 8 8 8 8 8 8 8 8 8 8 8 8 8 8 8 8 8 8 8 8 8 8 8 8 7 8 8 8 8 8 8 8 8
7 7 7 7 7 7 7 7 7 7 7 7 7 7 8 8 8 8 8 7 7 7 7 8 7 7 7 7 7 7 7 7 7 7 7 7 7 8 8 8 8 7 7
Wind_Speed
7 10 10 10 10 10 11 10 10 10 10 11 11 12 12 12 12 13 13 14 14 14 13 13 14 14 14 15 16 16 16 16 16 17 17 16 16 16 16 15 15 15 16
9 11 11 11 10 10 11 10 10 10 10 11 11 11 12 12 12 12 12 13 13 13 13 13 13 13 13 13 14 14 14 14 14 15 15 15 15 15 16 16 15 14 16
10 12 11 11 11 10 11 10 10 10 11 11 11 11 11 11 12 12 12 12 13 13 13 12 13 12 13 13 13 12 12 11 11 11 12 12 14 14 15 15 15 15 15
11 12 11 12 11 11 11 11 10 11 11 11 11 11 11 11 11 11 11 12 12 12 12 12 12 11 11 12 12 11 10 9 8 8 11 12 12 13 14 14 14 14 15
10 12 12 12 11 11 11 11 10 10 10 10 10 10 10 10 11 11 11 11 11 11 11 11 11 11 10 10 10 9 8 7 8 9 12 13 11 12 13 13 13 13 14
9 12 12 12 11 11 11 10 10 10 10 10 10 9 9 9 10 10 10 10 10 10 11 11 10 10 9 9 8 8 6 6 7 10 12 12 10 11 12 12 12 13 13
9 11 12 11 11 11 11 10 10 9 9 9 9 9 8 9 9 9 9 9 9 9 9 9 9 9 8 8 7 6 5 5 7 11 12 11 10 10 11 11 11 11 11
9 10 11 10 10 10 10 10 9 9 8 8 8 8 8 8 9 9 9 8 8 8 8 8 8 8 7 7 6 5 5 5 6 9 11 11 10 10 10 10 10 10 11
8 9 9 9 9 9 9 9 9 8 8 8 8 8 8 9 9 8 8 8 8 7 7 7 7 7 6 6 4 4 5 5 5 7 9 9 9 9 9 9 9 10 10
7 7 7 7 7 7 8 9 8 8 8 7 7 8 8 8 8 8 7 7 7 7 7 6 6 6 5 4 3 2 3 3 5 9 9 8 8 8 8 8 8 8 9
5 5 6 6 5 5 6 7 7 7 7 7 7 8 7 7 7 6 6 7 7 6 6 5 5 5 4 3 2 0 1 2 6 7 8 8 7 7 7 7 6 7 7
4 4 4 4 4 5 4 5 5 5 6 5 6 6 5 5 5 6 7 7 6 6 5 5 4 4 3 3 2 2 1 3 5 6 7 7 6 6 6 5 5 5 5
3 3 4 3 3 3 3 3 3 4 4 4 5 5 4 5 6 6 5 5 5 4 4 4 3 3 3 3 3 2 1 3 4 6 7 7 6 5 4 4 4 4 4
3 2 3 4 3 3 2 2 2 2 2 2 4 4 4 3 3 4 3 4 4 3 3 2 2 3 3 3 3 3 2 3 4 6 7 6 5 4 4 4 3 3 3
3 2 2 3 3 2 2 2 2 2 1 2 2 3 4 3 3 3 3 3 3 3 3 2 2 1 1 2 2 3 3 3 4 6 7 7 5 4 3 3 3 3 3
2 2 2 2 2 3 2 1 2 2 2 2 2 2 3 3 3 2 2 2 2 3 2 2 2 1 1 1 0 1 3 3 4 6 8 7 6 4 3 3 2 2 2
2 2 2 2 2 3 2 1 2 2 2 2 2 2 2 3 3 2 2 2 2 3 3 2 1 1 1 1 1 1 1 2 4 5 7 8 8 6 4 3 3 2 2
2 2 2 2 2 1 2 1 1 1 2 2 2 2 1 2 2 2 2 1 2 2 1 1 1 1 1 1 1 1 1 1 3 5 6 7 8 7 6 5 4 3 3
3 2 2 2 2 1 1 1 1 1 2 2 2 2 2 2 2 1 1 1 2 1 1 1 1 1 1 1 1 1 1 1 2 3 4 6 7 7 7 7 6 5 4
3 3 2 3 2 2 1 1 1 1 1 2 1 1 1 1 2 1 1 1 1 1 1 1 1 1 2 1 1 1 2 2 2 2 3 5 6 7 7 8 8 7 6
3 3 2 3 2 2 1 1 0 0 0 0 1 1 1 1 1 1 0 1 1 2 2 2 2 2 1 1 0 1 2 2 3 3 2 3 4 6 7 8 8 8 7
3 3 2 2 2 2 1 1 1 1 1 1 0 0 0 0 1 1 1 1 1 1 2 2 2 2 2 1 2 1 2 2 3 3 3 3 4 4 5 6 7 7 7
3 2 1 1 2 2 1 0 0 0 0 0 0 0 0 0 0 1 1 1 1 2 2 2 3 3 3 2 2 2 2 3 2 2 4 4 4 3 3 4 6 7 7
3 2 2 1 1 1 1 1 1 1 1 1 1 1 1 1 1 1 1 1 2 2 2 3 2 2 3 3 3 2 2 1 1 2 2 3 4 4 3 3 4 6 7
3 2 1 1 1 1 1 1 2 1 1 1 1 1 1 1 1 2 1 1 2 2 2 3 3 3 3 3 3 2 3 2 2 2 3 2 2 3 3 3 3 4 6
2 2 1 1 1 1 0 1 1 1 1 1 1 1 1 1 1 2 2 2 2 2 3 3 3 4 4 4 4 3 3 3 3 3 4 3 3 3 3 3 3 4 5
Wind_Direction
114 119 124 118 112 108 104 100 97 93 88 84 82 83 84 83 82 82 81 82 80 79 80 82 82 82 82 83 83 82 81 81 80 78 77 77 76 75 73 74 75 73 75
120 123 125 121 116 113 108 102 99 93 91 89 86 86 86 85 86 85 84 82 81 79 79 83 83 83 85 86 86 86 86 86 85 82 80 78 78 77 74 73 76 78 77
116 122 125 123 119 117 112 107 103 96 94 92 89 87 86 86 87 86 85 83 81 79 79 81 83 85 86 87 88 88 87 87 86 83 82 83 80 78 78 77 78 78 77
115 122 125 125 122 119 115 111 107 101 99 96 91 88 88 86 85 86 85 84 82 81 80 83 86 85 86 86 89 89 86 80 76 76 81 80 79 80 81 80 79 79 78
112 119 123 128 126 123 119 115 110 106 103 101 96 93 92 90 87 87 85 85 84 84 83 84 87 88 88 88 87 88 81 69 67 79 82 82 80 84 84 83 82 81 78
111 112 122 126 127 125 122 117 113 110 105 103 101 99 98 95 92 91 88 86 87 85 85 84 85 88 88 90 86 82 75 57 65 83 83 85 84 85 84 84 83 81 79
111 112 124 124 125 127 123 121 117 113 110 108 107 105 104 101 99 99 95 91 90 87 87 88 87 89 90 90 88 74 62 54 82 88 84 84 87 89 86 84 82 80 78
109 114 126 125 125 126 124 121 120 119 117 113 113 111 109 106 104 102 100 97 96 93 89 89 89 92 97 96 84 61 39 54 82 92 91 89 91 91 89 86 84 82 80
100 110 119 130 129 129 130 126 124 121 120 119 115 116 113 109 108 104 103 101 100 100 96 93 93 95 102 102 86 64 40 41 66 88 96 96 97 94 90 89 87 85 84
97 105 115 118 126 132 132 130 128 125 121 119 118 116 114 115 112 109 107 105 104 105 103 101 99 100 106 107 94 63 29 24 83 88 96 103 104 99 97 94 89 88 85
99 109 113 113 111 119 130 129 128 129 125 121 121 121 117 120 119 116 112 111 108 108 109 110 112 112 109 120 130 39 356 70 88 90 100 110 110 102 99 97 93 94 89
109 110 112 113 110 108 120 127 132 132 133 136 134 140 137 131 124 119 122 123 121 117 116 122 126 133 128 147 178 226 234 103 99 102 106 120 119 109 102 99 99 98 95
109 106 113 104 102 105 104 124 131 144 155 158 149 158 142 121 116 116 120 123 128 132 138 148 156 175 175 158 171 196 153 100 108 110 115 125 126 122 116 113 108 100 99
116 99 120 109 103 103 100 111 120 120 141 139 153 152 128 115 115 123 125 143 148 154 149 165 183 201 188 177 189 175 146 128 122 117 124 129 130 130 128 126 119 107 101
111 95 82 109 118 103 103 99 109 98 99 127 145 136 122 117 129 128 135 142 144 151 157 183 202 189 177 187 190 175 158 153 140 132 137 140 136 141 147 146 136 130 122
122 115 81 78 103 102 97 113 117 113 122 128 123 124 125 127 119 125 137 134 148 158 169 191 190 172 188 160 244 177 164 160 154 149 147 150 154 158 170 174 170 160 155
114 102 91 89 74 113 119 118 94 95 98 92 107 132 137 131 131 126 134 144 147 160 173 180 185 156 220 234 228 239 168 166 158 159 155 164 167 172 183 181 181 185 199
121 106 93 57 50 96 108 95 88 103 98 91 106 128 146 130 134 122 139 157 142 148 151 171 187 192 207 218 237 255 228 189 174 164 163 166 167 175 183 193 200 206 215
134 123 104 84 50 46 82 82 103 103 104 99 103 106 108 108 121 114 132 148 148 131 161 215 213 187 204 225 232 230 234 224 193 180 173 172 172 175 178 194 205 208 212
124 118 104 95 67 39 59 56 53 96 92 89 86 86 100 131 129 90 95 127 141 167 203 207 224 218 201 204 250 257 245 227 204 201 192 175 176 184 182 188 191 201 210
119 114 112 100 94 84 74 111 126 184 160 133 44 84 95 112 125 101 123 135 140 195 208 202 218 228 215 175 137 293 278 238 215 217 203 181 181 192 194 189 186 187 196
114 119 127 113 106 89 85 155 190 233 207 188 30 28 241 93 150 166 138 196 187 189 220 216 209 221 234 203 174 186 259 274 251 228 211 207 202 196 200 201 192 188 189
106 112 123 109 102 96 60 142 142 9 321 151 246 196 328 340 261 187 172 182 207 203 215 229 219 214 229 234 209 189 201 228 264 239 225 217 206 204 202 197 201 197 191
110 93 66 67 95 112 106 168 169 208 234 244 225 225 255 333 308 254 200 192 207 221 224 232 232 231 223 235 243 242 236 191 200 248 256 231 216 214 211 216 209 200 193
114 105 86 65 55 88 124 196 192 222 239 249 275 250 239 246 292 290 249 220 212 222 226 234 235 230 231 234 230 240 256 265 244 212 245 251 247 232 214 214 208 199 197
116 119 131 121 100 76 62 230 218 232 229 215 273 262 250 248 259 289 280 248 231 225 223 231 234 230 236 238 236 229 224 228 230 220 227 236 247 247 231 224 215 204 200
Height
1511 1513 1514 1515 1517 1518 1520 1521 1522 1523 1523 1524 1525 1526 1526 1527 1528 1528 1529 1529 1530 1530 1531 1531 1532 1532 1533 1533 1533 1534 1534 1534 1535 1535 1535 1535 1536 1536 1536 1536 1536 1536 1537
1510 1512 1514 1515 1517 1519 1520 1521 1522 1523 1524 1525 1526 1527 1528 1528 1529 1530 1530 1531 1531 1532 1532 1533 1533 1533 1534 1534 1535 1535 1536 1536 1536 1536 1537 1537 1537 1537 1538 1537 1538 1538 1538
1510 1512 1514 1515 1517 1519 1520 1522 1523 1524 1525 1526 1527 1528 1529 1529 1530 1531 1531 1532 1532 1533 1533 1534 1534 1535 1535 1535 1536 1536 1537 1538 1538 1538 1538 1538 1539 1539 1539 1539 1539 1539 1539
1510 1512 1513 1515 1517 1519 1521 1522 1523 1524 1525 1526 1527 1528 1529 1530 1531 1532 1532 1533 1533 1534 1534 1535 1535 1536 1536 1537 1537 1538 1538 1539 1539 1539 1539 1540 1540 1540 1540 1540 1540 1541 1541
1510 1512 1514 1516 1517 1519 1521 1522 1524 1525 1526 1527 1528 1529 1530 1531 1532 1532 1533 1533 1534 1534 1535 1535 1536 1536 1537 1537 1538 1539 1540 1540 1540 1540 1540 1541 1541 1541 1541 1541 1541 1542 1542
1511 1512 1514 1516 1517 1519 1521 1522 1524 1525 1526 1527 1528 1529 1530 1531 1532 1533 1533 1534 1534 1535 1535 1536 1536 1537 1537 1538 1539 1540 1540 1541 1541 1542 1542 1542 1542 1542 1542 1542 1542 1542 1542
1511 1512 1514 1516 1517 1519 1521 1522 1524 1525 1526 1527 1528 1529 1530 1531 1532 1533 1533 1534 1534 1535 1536 1536 1537 1537 1538 1539 1540 1540 1541 1542 1542 1542 1542 1543 1543 1543 1543 1543 1543 1543 1543
1511 1512 1514 1516 1517 1519 1521 1522 1524 1525 1526 1527 1528 1529 1530 1531 1532 1533 1533 1534 1535 1535 1536 1536 1537 1538 1538 1539 1540 1541 1541 1542 1542 1543 1543 1543 1543 1544 1544 1544 1544 1544 1544
1511 1512 1513 1515 1517 1519 1521 1522 1523 1525 1526 1527 1528 1529 1530 1531 1532 1533 1533 1534 1535 1535 1536 1536 1537 1538 1539 1539 1540 1541 1542 1542 1542 1543 1543 1544 1544 1544 1544 1544 1544 1544 1544
1510 1512 1513 1515 1516 1518 1520 1521 1523 1524 1525 1527 1528 1529 1529 1531 1532 1532 1533 1534 1534 1535 1536 1536 1537 1538 1539 1539 1540 1541 1542 1542 1543 1543 1543 1544 1544 1544 1544 1544 1544 1544 1544
1510 1511 1512 1514 1516 1517 1519 1520 1522 1524 1525 1526 1527 1528 1529 1530 1531 1532 1533 1534 1534 1535 1536 1536 1537 1538 1538 1539 1540 1541 1541 1542 1542 1542 1543 1544 1544 1544 1544 1544 1544 1544 1544
1509 1510 1511 1513 1514 1516 1518 1519 1521 1522 1524 1525 1526 1527 1528 1529 1530 1531 1532 1533 1533 1534 1535 1536 1536 1537 1538 1539 1539 1540 1541 1541 1542 1542 1542 1543 1543 1544 1544 1544 1544 1544 1544
1508 1510 1511 1512 1514 1515 1516 1518 1519 1521 1522 1524 1525 1526 1527 1528 1529 1530 1531 1531 1532 1533 1534 1535 1535 1536 1537 1538 1539 1539 1540 1540 1541 1541 1541 1542 1542 1543 1543 1543 1543 1543 1543
1507 1508 1510 1511 1512 1514 1515 1516 1518 1519 1521 1522 1524 1525 1526 1526 1527 1528 1529 1530 1531 1532 1532 1533 1534 1535 1536 1537 1538 1538 1539 1539 1539 1539 1540 1540 1541 1541 1542 1542 1542 1542 1542
1505 1506 1508 1509 1511 1512 1514 1515 1516 1518 1519 1521 1522 1523 1524 1524 1525 1527 1528 1529 1529 1530 1531 1532 1533 1534 1535 1535 1536 1537 1537 1537 1538 1538 1538 1538 1539 1540 1540 1541 1540 1540 1540
1503 1505 1506 1507 1509 1511 1512 1513 1515 1516 1518 1519 1520 1521 1522 1523 1524 1525 1526 1527 1528 1529 1530 1530 1531 1532 1533 1534 1534 1535 1535 1536 1536 1536 1537 1536 1537 1538 1538 1539 1539 1539 1539
1501 1503 1504 1505 1507 1508 1510 1511 1513 1514 1515 1517 1518 1519 1520 1521 1522 1523 1524 1525 1526 1527 1528 1528 1529 1530 1531 1532 1532 1533 1533 1534 1534 1534 1534 1535 1535 1536 1536 1536 1537 1537 1537
1499 1500 1502 1503 1504 1506 1507 1509 1510 1512 1513 1515 1516 1517 1518 1519 1520 1521 1521 1522 1524 1525 1525 1526 1527 1528 1528 1529 1530 1530 1531 1531 1532 1532 1532 1532 1532 1533 1533 1534 1534 1535 1535
1497 1498 1499 1500 1502 1503 1505 1507 1508 1510 1511 1512 1514 1515 1515 1516 1518 1518 1519 1520 1521 1522 1523 1523 1524 1525 1526 1526 1527 1527 1528 1528 1529 1529 1530 1530 1530 1530 1530 1531 1532 1532 1532
1495 1496 1497 1498 1499 1501 1503 1504 1506 1507 1509 1510 1511 1512 1513 1514 1515 1516 1516 1517 1518 1519 1520 1520 1521 1522 1523 1523 1524 1524 1525 1525 1525 1526 1527 1527 1528 1528 1528 1528 1529 1529 1529
1492 1493 1494 1495 1497 1498 1499 1501 1502 1504 1505 1507 1508 1509 1510 1511 1512 1513 1513 1514 1515 1516 1516 1517 1518 1519 1519 1520 1521 1520 1521 1522 1522 1522 1523 1523 1524 1525 1525 1525 1525 1525 1526
1489 1491 1492 1493 1494 1495 1497 1498 1500 1501 1502 1504 1505 1506 1507 1508 1509 1510 1510 1511 1512 1512 1513 1514 1514 1515 1516 1517 1517 1517 1518 1518 1517 1518 1519 1520 1520 1521 1521 1522 1522 1522 1522
1487 1488 1489 1490 1491 1493 1494 1496 1497 1498 1499 1500 1501 1503 1504 1505 1506 1506 1507 1507 1508 1509 1509 1510 1511 1511 1512 1513 1514 1515 1515 1513 1513 1514 1515 1516 1517 1517 1517 1518 1518 1518 1518
1484 1486 1487 1488 1489 1490 1492 1493 1493 1494 1495 1496 1497 1499 1500 1501 1502 1502 1503 1504 1504 1505 1505 1506 1507 1508 1508 1508 1509 1511 1512 1511 1511 1510 1511 1512 1513 1513 1513 1514 1514 1514 1514
1482 1484 1485 1486 1487 1488 1489 1489 1490 1491 1492 1492 1493 1495 1496 1497 1498 1498 1499 1500 1500 1501 1501 1502 1503 1503 1504 1505 1505 1506 1507 1507 1507 1507 1506 1508 1508 1509 1509 1509 1509 1510 1510
1480 1482 1483 1483 1484 1485 1486 1486 1487 1488 1488 1489 1489 1490 1491 1492 1493 1494 1495 1495 1496 1496 1497 1497 1498 1499 1499 1500 1501 1501 1502 1502 1502 1503 1503 1502 1503 1504 1504 1505 1505 1506 1506